map of DJE home
Great Circle Mapper logo
DJE - Airport
Location
City:  Djerba, Tunisia
Near (Alt.):Jerba
Name:Zarzis International Airport
ICAO:DTTJ
IATA:DJE

Details
Type:Airport (Aerodrome, Airfield)
Use:Public/Civil, International (customs port of entry)
Latitude:3352'32"N (33.875556)
Longitude:1046'38"E (10.777222)
Elevation:19 ft (6 m)
Variation:2.22E (WMM2015 magnetic declination)
0.09 annual change
Runways:1
Longest:10171 × 148 ft (3100 × 45 m), paved

Time
Time Zone:UTC+1 (DST+2)

Weather
METAR:DTTJ 271300Z 03011KT 8000 SCT020TCU SCT026 26/15 Q1019 NOSIG
TAF:DTTJ 271100Z 2712/2812 03010KT 8000 SCT020TCU
TEMPO 2714/2720 VRB35KT 3000 -TSRA TSGR FEW030CB BKN026TCU
BECMG 2723/2801 09005KT 8000 NSC
TEMPO 2803/2812 VRB39KT 3000 +TSRA TSGR SCT023CB BKN026TCU

Related Locations
Nearby:
Farthest:GIS: 11655 mi / 18756 km
Gisborne, NZ

Find:

   beyond  
but within

Other Information
Maps:
NOTAMs:
Links:
Sources:

  
flag of Tunisia   

Sectional Chart

Flight Planning
at skyvector.com

Satellite Image

Google Maps Satellite view

 

Copyright © 2004-2016 Karl L. Swartz. All rights reserved.
The Great Circle Mapper name and logo are trademarks of the Great Circle Mapper.
All other trademarks mentioned herein belong to their respective owners.
Please see credits for attibutions and further copyright information.

  Follow gcmap on Facebook Follow gcmap on Twitter Follow gcmap on Google+ GCmap on LinkedIn

hCard Microformat

Geo Microformat